Hourly Weather Ludwinowo

Today, 20 June, Sunday

Time Temperature Precipitation Wind Pressure Humidity
00:00 +22°C° 0 mm 3 mps 748 mmHg 76%
01:00 +21°C° 0 mm 3 mps 748 mmHg 79%
02:00 +21°C° 0 mm 3 mps 748 mmHg 80%
03:00 +21°C° 0 mm 4 mps 747 mmHg 81%
04:00 +20°C° 0 mm 4 mps 747 mmHg 81%
05:00 +22°C° 0 mm 4 mps 747 mmHg 77%
06:00 +23°C° 0 mm 4 mps 748 mmHg 72%
07:00 +25°C° 0 mm 4 mps 748 mmHg 67%
08:00 +26°C° 0 mm 5 mps 748 mmHg 62%
09:00 +28°C° 0 mm 5 mps 748 mmHg 57%
10:00 +29°C° 0 mm 5 mps 748 mmHg 52%
11:00 +30°C° 0 mm 5 mps 747 mmHg 49%
12:00 +32°C° 0 mm 4 mps 747 mmHg 47%
13:00 +33°C° 0 mm 4 mps 747 mmHg 45%
14:00 +33°C° 0 mm 4 mps 746 mmHg 46%
15:00 +33°C° 0 mm 3 mps 746 mmHg 46%
16:00 +33°C° 0 mm 3 mps 746 mmHg 47%
17:00 +30°C° 0 mm 3 mps 746 mmHg 53%
18:00 +29°C° 0 mm 4 mps 745 mmHg 60%
19:00 +27°C° 0 mm 4 mps 745 mmHg 66%
20:00 +26°C° 0 mm 4 mps 745 mmHg 67%
21:00 +25°C° 0 mm 4 mps 745 mmHg 68%
22:00 +22°C° 0 mm 4 mps 745 mmHg 70%
23:00 +22°C° 0 mm 4 mps 745 mmHg 72%

Tomorrow, 21 June, Monday

Time Temperature Precipitation Wind Pressure Humidity
00:00 +21°C° 0 mm 3 mps 745 mmHg 74%
01:00 +21°C° 0 mm 3 mps 745 mmHg 77%
02:00 +20°C° 0 mm 3 mps 744 mmHg 79%
03:00 +20°C° 0 mm 3 mps 744 mmHg 81%
04:00 +19°C° 0 mm 3 mps 744 mmHg 83%
05:00 +21°C° 0 mm 4 mps 744 mmHg 79%
06:00 +22°C° 0 mm 4 mps 744 mmHg 75%
07:00 +25°C° 0 mm 4 mps 744 mmHg 71%
08:00 +26°C° 0 mm 4 mps 744 mmHg 65%
09:00 +28°C° 0 mm 4 mps 744 mmHg 60%
10:00 +29°C° 0 mm 4 mps 744 mmHg 54%
11:00 +30°C° 0 mm 4 mps 744 mmHg 51%
12:00 +31°C° 0 mm 3 mps 744 mmHg 48%
13:00 +32°C° 0 mm 2 mps 743 mmHg 45%
14:00 +33°C° 0.2 mm 3 mps 743 mmHg 47%
15:00 +33°C° 0.2 mm 3 mps 743 mmHg 49%
16:00 +32°C° 0.2 mm 4 mps 742 mmHg 52%
17:00 +28°C° 3.4 mm 4 mps 743 mmHg 64%
18:00 +23°C° 3.4 mm 4 mps 744 mmHg 77%
19:00 +20°C° 3.4 mm 4 mps 744 mmHg 89%
20:00 +20°C° 0.4 mm 3 mps 745 mmHg 90%
21:00 +19°C° 0.4 mm 2 mps 745 mmHg 91%
22:00 +19°C° 0.4 mm 2 mps 745 mmHg 92%
23:00 +19°C° 0 mm 2 mps 745 mmHg 93%

Day after tomorrow, 22 June, Tuesday

Time Temperature Precipitation Wind Pressure Humidity
00:00 +19°C° 0 mm 2 mps 745 mmHg 93%
01:00 +18°C° 0 mm 2 mps 745 mmHg 93%
02:00 +18°C° 0 mm 2 mps 745 mmHg 95%
03:00 +18°C° 0 mm 2 mps 746 mmHg 96%
04:00 +17°C° 0 mm 2 mps 746 mmHg 97%
05:00 +18°C° 0 mm 3 mps 746 mmHg 94%
06:00 +18°C° 0 mm 3 mps 747 mmHg 91%
07:00 +19°C° 0 mm 4 mps 747 mmHg 87%
08:00 +20°C° 0 mm 4 mps 747 mmHg 81%
09:00 +21°C° 0 mm 3 mps 748 mmHg 75%
10:00 +24°C° 0 mm 3 mps 748 mmHg 68%
11:00 +25°C° 0 mm 3 mps 748 mmHg 64%
12:00 +26°C° 0 mm 3 mps 748 mmHg 61%
13:00 +27°C° 0 mm 3 mps 748 mmHg 57%
14:00 +27°C° 0 mm 3 mps 748 mmHg 56%
15:00 +27°C° 0 mm 2 mps 748 mmHg 55%
16:00 +27°C° 0 mm 2 mps 748 mmHg 54%
17:00 +27°C° 0 mm 2 mps 748 mmHg 59%
18:00 +26°C° 0 mm 2 mps 748 mmHg 64%
19:00 +25°C° 0 mm 2 mps 748 mmHg 70%
20:00 +24°C° 0 mm 2 mps 748 mmHg 72%
21:00 +21°C° 0 mm 2 mps 748 mmHg 74%
22:00 +20°C° 0 mm 3 mps 748 mmHg 76%
23:00 +19°C° 0 mm 3 mps 748 mmHg 78%

23 June, Wednesday

Time Temperature Precipitation Wind Pressure Humidity
00:00 +19°C° 0 mm 3 mps 748 mmHg 80%
01:00 +18°C° 0 mm 3 mps 748 mmHg 81%
02:00 +18°C° 0.8 mm 3 mps 748 mmHg 86%
03:00 +18°C° 0.8 mm 2 mps 748 mmHg 91%
04:00 +18°C° 0.8 mm 2 mps 748 mmHg 96%
05:00 +19°C° 0.9 mm 2 mps 748 mmHg 95%
06:00 +19°C° 0.9 mm 3 mps 748 mmHg 95%
07:00 +20°C° 0.9 mm 3 mps 748 mmHg 94%
08:00 +21°C° 0.3 mm 3 mps 748 mmHg 90%
09:00 +24°C° 0.3 mm 3 mps 748 mmHg 86%
10:00 +25°C° 0.3 mm 2 mps 748 mmHg 81%
11:00 +25°C° 0.4 mm 3 mps 748 mmHg 79%
12:00 +26°C° 0.4 mm 3 mps 749 mmHg 76%
13:00 +26°C° 0.4 mm 4 mps 749 mmHg 73%
14:00 +25°C° 0 mm 5 mps 749 mmHg 71%
15:00 +23°C° 0 mm 6 mps 750 mmHg 69%
16:00 +22°C° 0 mm 6 mps 750 mmHg 67%
17:00 +21°C° 0 mm 6 mps 751 mmHg 70%
18:00 +19°C° 0 mm 6 mps 751 mmHg 73%
19:00 +17°C° 0 mm 6 mps 751 mmHg 76%
20:00 +16°C° 0 mm 5 mps 751 mmHg 81%
21:00 +14°C° 0 mm 4 mps 752 mmHg 87%
22:00 +13°C° 0 mm 3 mps 752 mmHg 92%
23:00 +13°C° 0 mm 3 mps 752 mmHg 93%

24 June, Thursday

Time Temperature Precipitation Wind Pressure Humidity
00:00 +13°C° 0 mm 3 mps 752 mmHg 93%
01:00 +13°C° 0 mm 3 mps 752 mmHg 93%
02:00 +13°C° 0 mm 3 mps 752 mmHg 94%
03:00 +13°C° 0 mm 3 mps 752 mmHg 94%
04:00 +13°C° 0 mm 3 mps 752 mmHg 95%
05:00 +14°C° 0 mm 3 mps 752 mmHg 89%
06:00 +16°C° 0 mm 3 mps 752 mmHg 84%
07:00 +17°C° 0 mm 3 mps 752 mmHg 78%
08:00 +18°C° 0 mm 3 mps 753 mmHg 74%
09:00 +19°C° 0 mm 2 mps 753 mmHg 70%
10:00 +21°C° 0 mm 1 mps 753 mmHg 66%
11:00 +22°C° 0 mm 1 mps 753 mmHg 63%
12:00 +23°C° 0 mm 1 mps 752 mmHg 60%
13:00 +25°C° 0 mm 1 mps 752 mmHg 57%
14:00 +25°C° 0 mm 1 mps 752 mmHg 56%
15:00 +25°C° 0 mm 2 mps 751 mmHg 56%
16:00 +26°C° 0 mm 2 mps 751 mmHg 55%
17:00 +25°C° 0.2 mm 2 mps 750 mmHg 63%
18:00 +23°C° 0.2 mm 2 mps 750 mmHg 70%
19:00 +21°C° 0.2 mm 3 mps 749 mmHg 78%
20:00 +20°C° 3.8 mm 3 mps 749 mmHg 83%
21:00 +19°C° 3.8 mm 3 mps 749 mmHg 88%
22:00 +18°C° 3.8 mm 3 mps 749 mmHg 94%
23:00 +17°C° 6.3 mm 4 mps 749 mmHg 95%

25 June, Friday

Time Temperature Precipitation Wind Pressure Humidity
00:00 +16°C° 6.3 mm 5 mps 749 mmHg 96%
01:00 +15°C° 6.3 mm 6 mps 749 mmHg 97%
02:00 +15°C° 0.3 mm 6 mps 749 mmHg 97%
03:00 +15°C° 0.3 mm 5 mps 749 mmHg 96%
04:00 +14°C° 0.3 mm 5 mps 749 mmHg 96%
05:00 +14°C° 0.1 mm 5 mps 750 mmHg 94%
06:00 +14°C° 0.1 mm 5 mps 751 mmHg 91%
07:00 +15°C° 0.1 mm 5 mps 751 mmHg 88%
08:00 +15°C° 0 mm 5 mps 752 mmHg 85%
09:00 +16°C° 0 mm 5 mps 752 mmHg 81%
10:00 +16°C° 0 mm 5 mps 752 mmHg 77%
11:00 +18°C° 0 mm 4 mps 752 mmHg 73%
12:00 +19°C° 0 mm 4 mps 752 mmHg 69%
13:00 +21°C° 0 mm 4 mps 752 mmHg 65%
14:00 +21°C° 0 mm 4 mps 752 mmHg 64%
15:00 +21°C° 0 mm 3 mps 752 mmHg 62%
16:00 +21°C° 0 mm 3 mps 752 mmHg 61%
17:00 +20°C° 0 mm 2 mps 752 mmHg 65%
18:00 +20°C° 0 mm 2 mps 752 mmHg 69%
19:00 +20°C° 0 mm 1 mps 752 mmHg 73%
20:00 +19°C° 0 mm 1 mps 752 mmHg 75%
21:00 +17°C° 0 mm 2 mps 752 mmHg 77%
22:00 +16°C° 0 mm 2 mps 753 mmHg 79%
23:00 +16°C° 0 mm 2 mps 753 mmHg 79%
Show more

We Need Your Consent

Meteoprog and our Service Providers may store and access personal data such as cookies, device identifiers or other similar technologies on your device and process such data to personalise content and ads, as well as provide social media features and to analyse the traffic.

  • Store and/or access information on your device

    Cookies, device identifiers or other information can be stored or accessed on your device for the purposes indicated above.

  • Personalised ads and content, ad and content measurement, audience insights, and products development

    Ads and content can be personalised based on a profile. More data can be added to better personalise ads and content. Ad and content performance can be measured. Insights about the audience who saw the ads and content can be derived. Such data can be used to develop or improve user’s experience, systems and software.

By clicking ‘I Agree’ you will allow the use of indicated cookies, device identifiers, web beacons or other similar technologies. Your settings can be changed in the browser on your device.

For certain purposes, legitimate interests may be relied on, rather than consent. You can read more about this in our Privacy and Cookie Policy.